Location: Unspecified
(50.7693°N, 0.0000°E)
Time: 19:13:37
(UTC+00:00)

Vanguard 3 - Visible Passes

Search period start: 07 August 2020 00:00
Search period end: 17 August 2020 00:00
Orbit: 509 x 3262 km, 33.3° (Epoch: 07 August)

Date Brightness Start Highest point End Pass type
(mag) Time Alt. Az. Time Alt. Az. Time Alt. Az.
08 Aug 11.3 03:31:15 10° SSE 03:38:26 14° SE 03:44:47 10° ESE visible
10 Aug 11.2 03:11:05 10° S 03:21:11 17° SE 03:29:55 10° ESE visible
11 Aug 11.4 02:03:23 10° SE 02:06:14 10° SE 02:09:02 10° SE visible
11 Aug 10.9 04:05:02 10° SSW 04:19:02 26° SSE 04:30:06 10° ESE visible
12 Aug 11.1 02:51:43 10° S 03:03:47 20° SE 03:14:20 10° ESE visible
13 Aug 11.2 01:41:18 10° SSE 01:48:46 13° SE 01:55:54 10° ESE visible
13 Aug 10.8 03:46:29 10° SSW 04:01:40 29° SSE 04:13:59 10° ESE visible
14 Aug 11.0 02:33:29 11° S 02:46:17 23° SSE 02:58:17 10° ESE visible
15 Aug 11.1 01:23:19 12° SSE 01:31:10 16° SE 01:40:35 10° ESE visible
15 Aug 10.7 03:28:11 10° SSW 03:44:11 32° SSE 03:57:38 10° ESE visible
16 Aug 10.9 02:17:39 15° S 02:28:40 26° SSE 02:41:55 10° E visible
